This is the latest recevied weather packets stored in our database for station/object SQ3RAX-13. If no packets are shown the sender has not sent any weather packets the latest 1 day(s).
| Time | Temp. | Humidity | Pressure | Rain* | Wind** | Luminosity | Snow |
|---|---|---|---|---|---|---|---|
| 1836274637 | 14.44° C | 90% | 1020 hPa | 0 mm | 3.58 m/s, 176° | - | - |
| 1836274487 | 14.44° C | 90% | 1021 hPa | 0 mm | 3.58 m/s, 176° | - | - |
| 1836274037 | 14.44° C | 92% | 1021 hPa | 0 mm | 3.58 m/s, 173° | - | - |
| 1778036167 | 10.56° C | 89% | 1005 hPa | 0 mm | 4.47 m/s, 56° | - | - |
| 1778035567 | 11.11° C | 89% | 1005 hPa | 0 mm | 4.47 m/s, 56° | - | - |
| 1778034967 | 11.11° C | 89% | 1005 hPa | 0 mm | 4.47 m/s, 56° | - | - |
| 1778034367 | 11.11° C | 90% | 1005 hPa | 0 mm | 4.92 m/s, 52° | - | - |
| 1778033768 | 11.11° C | 90% | 1006 hPa | 0 mm | 4.92 m/s, 52° | - | - |
| 1778033168 | 11.11° C | 86% | 1006 hPa | 0 mm | 4.92 m/s, 52° | - | - |
| 1778032568 | 11.11° C | 86% | 1006 hPa | 0 mm | 4.92 m/s, 52° | - | - |
| 1778031968 | 11.11° C | 86% | 1006 hPa | 0 mm | 4.92 m/s, 52° | - | - |
| 1778031368 | 11.11° C | 86% | 1006 hPa | 0 mm | 4.92 m/s, 52° | - | - |
| 1778030768 | 11.67° C | 87% | 1005 hPa | 0 mm | 5.36 m/s, 43° | - | - |
| 1778030168 | 11.11° C | 87% | 1006 hPa | 0 mm | 5.36 m/s, 43° | - | - |
| 1778029568 | 11.67° C | 87% | 1005 hPa | 0 mm | 5.36 m/s, 43° | - | - |
| 1778028968 | 11.67° C | 87% | 1005 hPa | 0 mm | 5.36 m/s, 43° | - | - |
| 1778028368 | 11.67° C | 87% | 1005 hPa | 0 mm | 4.02 m/s, 43° | - | - |
| 1778027768 | 11.67° C | 87% | 1005 hPa | 0 mm | 4.02 m/s, 43° | - | - |
| 1778027168 | 11.67° C | 87% | 1006 hPa | 0 mm | 4.02 m/s, 43° | - | - |
| 1778026568 | 12.22° C | 86% | 1006 hPa | 0 mm | 4.02 m/s, 43° | - | - |
| 1778025968 | 12.22° C | 86% | 1006 hPa | 0 mm | 4.02 m/s, 43° | - | - |
| 1778025368 | 12.22° C | 85% | 1006 hPa | 0 mm | 4.02 m/s, 43° | - | - |
| 1778024768 | 12.22° C | 84% | 1006 hPa | 0 mm | 4.02 m/s, 43° | - | - |
| 1778024168 | 12.22° C | 84% | 1006 hPa | 0 mm | 4.02 m/s, 43° | - | - |
| 1778023568 | 12.22° C | 85% | 1007 hPa | 0 mm | 4.47 m/s, 43° | - | - |
* Rain latest hour (hover to see other rain measurements)
** Current wind speed in m/s (hover to see current wind gust speed)